World > North America > United States > South Dakota > Hartford  

Hartford, SD Hourly Weather Updates

Feedback E-mail the Weather

Quick Clicks

Hartford, SD Weather Maps

°F °C°F °C
Hartford Weather Map
UTC Time: 5/18/2024, 03:15
Your Time:

Hartford, SD Regional Weather

Expires:202405180400;;400384
ASUS43 KFSD 180310
RWRSD 

WEATHER ROUNDUP FOR SOUTH DAKOTA
NATIONAL WEATHER SERVICE SIOUX FALLS SD
1000 PM CDT FRI MAY 17 2024

NOTE: "FAIR" INDICATES FEW OR NO CLOUDS BELOW 12,000 FEET WITH NO
SIGNIFICANT WEATHER AND/OR OBSTRUCTIONS TO VISIBILITY.



SDZ017-020-022-023-036>040-048>070-180400-
SOUTHEAST SOUTH DAKOTA
  
CITY           SKY/WX    TMP DP  RH WIND       PRES   REMARKS
SIOUX FALLS    PTCLDY    79  50  36 S22G38    29.52R TC  26           
HURON          CLEAR     79  53  40 S13       29.39R TC  26           
CHAMBERLAIN    CLEAR     68  58  71 S8        29.41R TC  20           
MADISON          N/A     77  52  41 S17G26    29.48R TC  25           
MITCHELL       CLEAR     79  52  38 S17G29    29.43S TC  26           
YANKTON        CLEAR     78  52  40 S21G26    29.51R TC  26           
$$
 
ABBREVIATIONS USED IN REMARKS
   TC - TEMPERATURE IN CELSIUS
  WCI - WIND CHILL INDEX
   HX - HEAT INDEX
  VSB - VISIBILITY

  

SKY/WX - Weather  TMP - Temperature  DP - Dew Point  RH - Humidity
WIND - Wind Direction/Speed PRES - Barometric Pressure VSB - Visibility
WCI - Wind Chill Index E13G22 Wind - East Wind 13 mph/Gusts of 22 mph

Trending Headlines

Trending Entertainment Headlines

Hartford Radar Loop

Use the map search tool if you want to place a location marker on the radar map...

Hartford Quick Facts

National Two Day Weather Forecast


E-mail the Hartford Weather Forecast

Voice your opinion or tell us about page issues...